COSMOS 807
导读
COSMOS 807是1976年3月12日由独联体(CIS,原苏联航天体系)发射的军用卫星,隶属于苏联“宇宙”系列卫星项目,该系列卫星承担航天技术试验、空间环境探测与军事观测任务。COSMOS 807运行在近地轨道,是苏联冷战时期空间技术探索的组成部分,验证了空间平台运行等相关技术,为后续航天发展积累了工程经验,目前已完成服役任务成为空间轨道在轨废弃目标。
Basic Information
目录编号:
8744
目录名称:
COSMOS 807
国际标识:
1976-022A
轨道中心:
EARTH
卫星名称:
COSMOS 807
卫星全名:
--
卫星状态:
在轨 (已飞行18438 天)
发射日期:
1976-03-12 UTC
国别 :
星等 :
--
Orbit Information
| 数据来源 | 国际轨道数据 | AOE轨道数据 |
| 星历时间 | 2026-09-04T03:43:29+0800 9小时前 查看轨道信息 | 2026-08-30T02:00:00+0800 5天前 查看轨道信息 |
| 半长轴 | 7059.58km | 7059.883km |
| 偏心率 | 0.0452573 | 0.0453437 |
| 轨道倾角 | 82.911° | 82.909° |
| 近地点辐角 | 358.483° | 14.923° |
| 升交点赤经 | 251.637° | 256.019° |
| 平近点角 | 49.327° | 325.692° |
| 近地点 | 361.945km | 361.624km |
| 远地点 | 1000.941km | 1001.868km |
| 周期 | 98.385分钟 | 98.391分钟 |
| 每日圈数 | 14.636409 | 14.635465 |
Detailed Information
使用方式:
暂无
2D Orbit Map
3D Orbit Map
Orbit Altitude Analysis Chart
Orbit Inclination Analysis Chart
Orbit Comprehensive Analysis Chart
View Comprehensive ChartConjunction Data List
| Event ID | Objects | TCA | Miss Dist (km) | Collision Risk Probability | Collision Risk Index (CRI) | Action |
|---|---|---|---|---|---|---|
| CDM_260903-130800-874406-475523 |
COSMOS 807
(8744)
STARLINK-33965
(64755) | 2026-09-03T 13:08:34+0000 |
0.612 km
远距离 | 1.115265E-4 高风险 | 0.76 | |
| CDM_260904-163600-874406-418421 |
COSMOS 807
(8744)
STARLINK-34197
(64184) | 2026-09-04T 16:36:38+0000 |
0.806 km
远距离 | 4.349171E-5 中风险 | 0.68 | |
| CDM_260905-085200-874404-001023 |
COSMOS 807
(8744)
KAZEOSAT 2
(40010) | 2026-09-05T 08:52:10+0000 |
2.155 km
极远距离 | 2.404323E-6 低风险 | 0.43 | |
| CDM_260903-031800-874406-618324 |
COSMOS 807
(8744)
STARLINK-35310
(66183) | 2026-09-03T 03:18:21+0000 |
2.850 km
极远距离 | 1.275698E-6 低风险 | 0.37 | |
| CDM_260903-074500-874402-003224 |
COSMOS 807
(8744)
COSMOS 970 DEB *
(20032) | 2026-09-03T 07:45:56+0000 |
2.974 km
极远距离 | 1.237769E-6 低风险 | 0.37 | |
| CDM_260903-105700-874404-115624 |
COSMOS 807
(8744)
NOAA 16 DEB
(41156) | 2026-09-03T 10:57:29+0000 |
2.878 km
极远距离 | 1.161112E-6 低风险 | 0.36 |

